World > North America > United States > Oregon

Hourly Carver, OR Regional Weather

Feedback E-mail the Weather

Quick WX

Carver, OR Weather Maps

°F °C°F °C
Carver Weather Map
UTC Time: 6/25/2022, 20:54
Your Time:

Carver, OR Regional Weather

Expires:202206252100;;181385
ASUS46 KPQR 252010
RWROR 

OREGON REGIONAL WEATHER ROUNDUP
NATIONAL WEATHER SERVICE PORTLAND OR
100 PM PDT SAT JUN 25 2022

NOTE: "FAIR" INDICATES FEW OR NO CLOUDS BELOW 12,000 FEET WITH
NO SIGNIFICANT WEATHER AND/OR OBSTRUCTIONS TO VISIBILITY.


ORZ001>013-252100-
NORTHWEST OREGON

  
CITY           SKY/WX    TMP DP  RH WIND       PRES   REMARKS
ASTORIA        SUNNY     83  53  35 NE12      30.04F                  
TILLAMOOK      SUNNY     90  45  20 NE13G21   30.01F                  
NEWPORT        SUNNY     79  50  36 N10G17    30.00F                  
FLORENCE       FAIR      81  48  32 NW12      29.93F                  
PORTLAND       MOSUNNY   89  43  20 E21       30.02F                  
VANCOUVER WA   SUNNY     88  42  20 E18G29    30.03F                  
SCAPPOOSE      SUNNY     88  49  25 N5        30.03F                  
HILLSBORO      SUNNY     88  45  22 E13       30.03F                  
AURORA         SUNNY     91  45  20 NE13G21   30.00F                  
MCMINNVILLE    SUNNY     87  52  29 E13G21    30.00F                  
SALEM          SUNNY     91  49  23 N10       29.98F                  
CORVALLIS      SUNNY     87  52  29 N10       29.98F                  
EUGENE         SUNNY     87  57  35 N13       29.97F                  
CRESWELL       SUNNY     82  57  42 N7        29.96F                  
$$


SKY/WX - Weather  TMP - Temperature  DP - Dew Point  RH - Humidity
WIND - Wind Direction/Speed PRES - Barometric Pressure VSB - Visibility
WCI - Wind Chill Index E13G22 Wind - East Wind 13 mph/Gusts of 22 mph

Trending Headlines

Carver Radar Loop



Carver Quick Facts


National Two Day Weather Forecast


E-mail the Carver Weather Forecast

Voice your opinion or tell us about page issues...